sat.trackr.live / text

‹ back to catalog

FLOCK 4H-32

NORAD 66735 · 2025-276BX

PAYLOAD ACTIVE UNKNOWN

§ Identity

Operator
Country
US
Launch date
2025-11-28
Launch site
AFWTR
Launch vehicle
Mass (kg)
RCS (m²)

Purposes: earth_obs

External: N2YO · Heavens-Above · Gunter

§ Orbital elements

Epoch: 2026-09-20T00:10:33.500352Z

Period
94.69 min
Inclination
97.4144°
Eccentricity
0.0005564
Mean motion
15.20752617 rev/d
Perigee alt
499.7 km
Apogee alt
507.4 km
Semi-major
6,881.7 km
B*
2.0853e-4
RAAN
335.0281°
Arg perigee
51.3941°
Mean anomaly
308.7792°
Rev number
4,482

§ Raw data

FLOCK 4H-321 66735U 25276BX  26263.00733218  .00004523  00000+0  20853-3 0  99962 66735  97.4144 335.0281 0005564  51.3941 308.7792 15.20752617 44823

JSON: /api/v1/satellites/66735 · /tle

For live sub-satellite position, see the globe view (requires WebGL).

§ Visibility from observer

Set your observer location to see the next 7 days of passes ≥ 10°. The values pass through the URL so the page stays shareable.

No JS? Fill the form by hand. The geolocation button needs JavaScript.